Pagosa Springs, CO

7:58 AM MDT on September 26, 2017 (GMT -0600)
Pagosa Springs

Weather History for KPSO - May, 2014

Change the Weather History Date:

Saturday, May 17, 2014

  Actual Average (KE33) Record (KE33)
Temperature  
Mean Temperature 54 °F -  
Max Temperature 72 °F 63 °F 80 °F (2000)
Min Temperature 37 °F 39 °F 32 °F (1999)
Degree Days  
Heating Degree Days 10    
Growing Degree Days 4 (Base 50)    
Moisture  
Dew Point 23 °F    
Average Humidity 31    
Maximum Humidity 73    
Minimum Humidity 10    
Precipitation  
Precipitation 0.00 in - - ()
Sea Level Pressure  
Sea Level Pressure 30.14 in    
Wind  
Wind Speed 2 mph (NNW)    
Max Wind Speed 16 mph    
Max Gust Speed 25 mph    
Visibility 10 miles    
Events Thunderstorm    
Averages and records for this station are not official NWS values.
T = Trace of Precipitation, MM = Missing Value Source: NWS Daily Summary

Daily Weather History Graph

Daily Weather History Graph

Search for Another Location

Airport or City:

Trip Planner

Search our weather history database for the weather conditions in past years. The results will help you decide how hot, cold, wet, or windy it might be!

Date:

Astronomy

May. 17, 2014 Rise Set
Actual Time 5:57 AM MDT 8:11 PM MDT
Civil Twilight 5:28 AM MDT 8:41 PM MDT
Nautical Twilight 4:52 AM MDT 9:17 PM MDT
Astronomical Twilight 4:13 AM MDT 9:56 PM MDT
Moon 11:15 PM MDT (5/17) 8:43 AM MDT (5/17)
Length of Visible Light 15h 12m
Length of Day
14h 13m
Waning Gibbous, 89% of the Moon is Illuminated
May 17
Waning Gibbous
May 21
Last Quarter
May 28
New
Jun 5
First Quarter
Jun 12
Full

Hourly Weather History & Observations

Time (MDT) Temp. Windchill Dew Point Humidity Pressure Visibility Wind Dir Wind Speed Gust Speed Precip Events Conditions
12:15 AM 48.7 °F - 25.0 °F 40% 30.17 in 10.0 mi Calm Calm - N/A   Clear
12:35 AM 49.6 °F - 26.1 °F 40% 30.18 in 10.0 mi Calm Calm - N/A   Clear
12:55 AM 49.8 °F - 23.4 °F 36% 30.17 in 10.0 mi Calm Calm - N/A   Clear
1:15 AM 49.5 °F - 23.9 °F 37% 30.18 in 10.0 mi Calm Calm - N/A   Clear
1:35 AM 49.8 °F - 22.5 °F 34% 30.19 in 10.0 mi East 3.5 mph - N/A   Clear
1:55 AM 51.3 °F - 24.3 °F 35% 30.17 in 10.0 mi Calm Calm - N/A   Clear
2:15 AM 48.4 °F - 25.3 °F 41% 30.17 in 10.0 mi Calm Calm - N/A   Clear
2:35 AM 47.5 °F - 25.7 °F 43% 30.17 in 10.0 mi Calm Calm - N/A   Clear
2:55 AM 48.4 °F - 28.8 °F 47% 30.17 in 10.0 mi Calm Calm - N/A   Clear
3:15 AM 47.5 °F - 29.3 °F 49% 30.17 in 10.0 mi Calm Calm - N/A   Clear
3:35 AM 45.0 °F - 27.9 °F 51% 30.17 in 10.0 mi Calm Calm - N/A   Clear
3:55 AM 43.3 °F - 27.9 °F 54% 30.16 in 10.0 mi Calm Calm - N/A   Clear
4:15 AM 42.3 °F - 27.5 °F 56% 30.17 in 10.0 mi Calm Calm - N/A   Clear
4:35 AM 43.0 °F 41.3 °F 26.8 °F 53% 30.16 in 10.0 mi NW 3.5 mph - N/A   Clear
4:55 AM 40.8 °F - 27.9 °F 60% 30.16 in 10.0 mi Calm Calm - N/A   Clear
5:15 AM 42.8 °F - 27.5 °F 55% 30.17 in 10.0 mi Calm Calm - N/A   Clear
5:35 AM 38.3 °F - 27.7 °F 66% 30.17 in 10.0 mi Calm Calm - N/A   Clear
5:55 AM 38.7 °F - 27.3 °F 64% 30.17 in 10.0 mi Calm Calm - N/A   Clear
6:15 AM 37.8 °F - 28.4 °F 69% 30.17 in 10.0 mi Calm Calm - N/A   Clear
6:35 AM 38.5 °F - 29.1 °F 69% 30.19 in 10.0 mi Calm Calm - N/A   Clear
6:55 AM 38.3 °F - 30.4 °F 73% 30.19 in 10.0 mi Calm Calm - N/A   Clear
7:15 AM 43.0 °F - 32.7 °F 67% 30.19 in 10.0 mi Calm Calm - N/A   Clear
7:35 AM 48.7 °F - 30.9 °F 50% 30.19 in 10.0 mi Calm Calm - N/A   Clear
7:55 AM 50.2 °F - 28.2 °F 43% 30.19 in 10.0 mi Calm Calm - N/A   Clear
8:15 AM 53.4 °F - 27.9 °F 37% 30.19 in 10.0 mi Calm Calm - N/A   Clear
8:35 AM 55.8 °F - 29.5 °F 37% 30.19 in 10.0 mi Calm Calm - N/A   Clear
8:55 AM 58.1 °F - 26.4 °F 30% 30.19 in 10.0 mi East 3.5 mph - N/A   Clear
9:15 AM 59.0 °F - 26.8 °F 29% 30.19 in 10.0 mi Calm Calm - N/A   Clear
9:35 AM 60.3 °F - 24.8 °F 26% 30.19 in 10.0 mi Calm Calm - N/A   Clear
9:55 AM 60.8 °F - 24.3 °F 25% 30.19 in 10.0 mi Calm Calm - N/A   Clear
10:15 AM 61.7 °F - 23.9 °F 24% 30.18 in 10.0 mi Calm Calm - N/A Thunderstorm Thunderstorm
10:35 AM 63.1 °F - 25.2 °F 24% 30.17 in 10.0 mi South 10.4 mph - N/A   Clear
10:55 AM 65.1 °F - 24.3 °F 21% 30.17 in 10.0 mi South 9.2 mph - N/A   Clear
11:15 AM 67.8 °F - 19.8 °F 16% 30.16 in 10.0 mi SSW 11.5 mph 18.4 mph N/A   Clear
11:35 AM 68.9 °F - 18.3 °F 15% 30.15 in 10.0 mi WSW 13.8 mph 19.6 mph N/A   Clear
11:55 AM 66.9 °F - 18.5 °F 16% 30.15 in 10.0 mi WSW 10.4 mph 19.6 mph N/A   Scattered Clouds
12:15 PM 64.8 °F - 23.5 °F 21% 30.14 in 10.0 mi NNE 6.9 mph 18.4 mph N/A   Mostly Cloudy
12:35 PM 67.6 °F - 23.7 °F 19% 30.14 in 10.0 mi NE 4.6 mph - N/A   Scattered Clouds
12:55 PM 66.4 °F - 24.8 °F 21% 30.13 in 10.0 mi NE 9.2 mph - N/A   Mostly Cloudy
1:15 PM 65.7 °F - 23.9 °F 21% 30.15 in 10.0 mi NNW 6.9 mph - N/A   Overcast
1:35 PM 64.0 °F - 25.5 °F 23% 30.14 in 10.0 mi NNE 10.4 mph - N/A   Mostly Cloudy
1:55 PM 64.0 °F - 27.1 °F 25% 30.14 in 10.0 mi NNE 6.9 mph - N/A   Mostly Cloudy
2:15 PM 66.4 °F - 25.5 °F 21% 30.14 in 10.0 mi NNE 3.5 mph - N/A   Scattered Clouds
2:35 PM 67.1 °F - 20.8 °F 17% 30.13 in 10.0 mi ENE 4.6 mph - N/A   Clear
2:55 PM 68.9 °F - 19.0 °F 15% 30.12 in 10.0 mi NNW 4.6 mph - N/A   Clear
3:15 PM 70.3 °F - 15.3 °F 12% 30.11 in 10.0 mi NNW 8.1 mph - N/A   Scattered Clouds
3:35 PM 72.3 °F - 15.1 °F 11% 30.10 in 10.0 mi NW 10.4 mph 19.6 mph N/A   Scattered Clouds
3:55 PM 70.5 °F - 13.5 °F 11% 30.09 in 10.0 mi North 6.9 mph - N/A   Scattered Clouds
4:15 PM 70.3 °F - 11.8 °F 10% 30.09 in 10.0 mi West 9.2 mph 16.1 mph N/A   Scattered Clouds
4:35 PM 71.2 °F - 14.9 °F 12% 30.09 in 10.0 mi NW 9.2 mph 21.9 mph N/A   Mostly Cloudy
4:55 PM 72.7 °F - 13.8 °F 11% 30.10 in 10.0 mi NW 16.1 mph 25.3 mph N/A   Scattered Clouds
5:15 PM 71.2 °F - 13.1 °F 11% 30.10 in 10.0 mi NW 6.9 mph 21.9 mph N/A   Clear
5:35 PM 70.3 °F - 14.0 °F 12% 30.11 in 10.0 mi NW 11.5 mph 17.3 mph N/A   Clear
5:55 PM 70.0 °F - 13.6 °F 11% 30.10 in 10.0 mi WNW 10.4 mph 19.6 mph N/A   Clear
6:15 PM 70.9 °F - 13.6 °F 11% 30.09 in 10.0 mi West 10.4 mph 20.7 mph N/A   Clear
6:35 PM 68.9 °F - 13.5 °F 12% 30.09 in 10.0 mi NW 9.2 mph - N/A   Clear
6:55 PM 69.1 °F - 14.9 °F 12% 30.10 in 10.0 mi NW 6.9 mph - N/A   Clear
7:15 PM 69.1 °F - 12.4 °F 11% 30.09 in 10.0 mi WNW 6.9 mph - N/A   Clear
7:35 PM 67.8 °F - 13.6 °F 12% 30.09 in 10.0 mi WNW 6.9 mph - N/A   Clear
7:55 PM 65.5 °F - 17.8 °F 16% 30.10 in 10.0 mi Calm Calm - N/A   Clear
8:15 PM 59.5 °F - 22.3 °F 24% 30.10 in 10.0 mi NW 3.5 mph - N/A   Clear
8:35 PM 63.0 °F - 18.0 °F 18% 30.11 in 10.0 mi NNW 3.5 mph - N/A   Clear
8:55 PM 63.5 °F - 17.2 °F 17% 30.11 in 10.0 mi Calm Calm - N/A   Clear
9:15 PM 58.3 °F - 23.9 °F 27% 30.11 in 10.0 mi Calm Calm - N/A   Clear
9:35 PM 57.7 °F - 21.7 °F 25% 30.12 in 10.0 mi Calm Calm - N/A   Clear
9:55 PM 56.3 °F - 22.3 °F 27% 30.12 in 10.0 mi Calm Calm - N/A   Clear
10:15 PM 51.1 °F - 25.0 °F 36% 30.13 in 10.0 mi Calm Calm - N/A   Clear
10:35 PM 55.0 °F - 24.4 °F 31% 30.13 in 10.0 mi Calm Calm - N/A   Clear
10:55 PM 49.6 °F - 26.4 °F 41% 30.13 in 10.0 mi Calm Calm - N/A   Clear
11:15 PM 47.8 °F - 26.6 °F 44% 30.12 in 10.0 mi Calm Calm - N/A   Clear
11:35 PM 49.5 °F - 23.9 °F 37% 30.12 in 10.0 mi Calm Calm - N/A   Clear
11:55 PM 48.4 °F - 27.7 °F 45% 30.12 in 10.0 mi Calm Calm - N/A   Clear